Grand Island, NE

5:10 AM CDT on June 23, 2017 (GMT -0500)
Central Nebraska Regional

Weather History for KGRI - May, 2013

Change the Weather History Date:

Thursday, May 2, 2013

  Actual Average Record
Temperature  
Mean Temperature 45 °F 56 °F  
Max Temperature 53 °F 69 °F 95 °F (1902)
Min Temperature 36 °F 45 °F 23 °F (1967)
Degree Days  
Heating Degree Days 20 9  
Month to date heating degree days 45 19  
Since 1 July heating degree days 5971 6021  
Cooling Degree Days 0 1  
Month to date cooling degree days 0 2  
Year to date cooling degree days 6 13  
Moisture  
Dew Point 30 °F    
Average Humidity 60    
Maximum Humidity 82    
Minimum Humidity 38    
Precipitation  
Precipitation 0.00 in 0.12 in 1.05 in (1903)
Month to date precipitation 0.93 0.23  
Year to date precipitation 7.53 5.77  
Snow  
Snow 0.00 in 0.00 in 0.90 in (1954)
Month to date snowfall 0.7 0.0  
Since 1 July snowfall 35.2 29.0  
Snow Depth T in    
Sea Level Pressure  
Sea Level Pressure 30.57 in    
Wind  
Wind Speed 17 mph (North)    
Max Wind Speed 29 mph    
Max Gust Speed 36 mph    
Visibility 10 miles    
Events      
T = Trace of Precipitation, MM = Missing Value Source: NWS Daily Summary

Daily Weather History Graph

Daily Weather History Graph

Search for Another Location

Airport or City:

Trip Planner

Search our weather history database for the weather conditions in past years. The results will help you decide how hot, cold, wet, or windy it might be!

Date:

Astronomy

May. 02, 2013 Rise Set
Actual Time 6:29 AM CDT 8:31 PM CDT
Civil Twilight 5:59 AM CDT 9:01 PM CDT
Nautical Twilight 5:23 AM CDT 9:38 PM CDT
Astronomical Twilight 4:43 AM CDT 10:18 PM CDT
Moon 2:21 AM CDT (5/2) 1:19 PM CDT (5/2)
Length of Visible Light 15h 01m
Length of Day
14h 01m
Waning Gibbous, 47% of the Moon is Illuminated
May 2
Waning Gibbous
May 9
New
May 17
First Quarter
May 24
Full
May 31
Last Quarter

Hourly Weather History & Observations

Time (CDT) Temp. Windchill Dew Point Humidity Pressure Visibility Wind Dir Wind Speed Gust Speed Precip Events Conditions
12:53 AM 36.0 °F 27.1 °F 28.9 °F 76% 30.54 in 10.0 mi North 13.8 mph - N/A   Overcast
1:53 AM 37.0 °F 27.4 °F 30.0 °F 76% 30.55 in 10.0 mi North 17.3 mph - N/A   Overcast
2:53 AM 36.0 °F 26.3 °F 30.0 °F 79% 30.55 in 10.0 mi North 16.1 mph - N/A   Overcast
3:53 AM 37.0 °F 27.7 °F 30.0 °F 76% 30.57 in 10.0 mi North 16.1 mph - N/A   Overcast
4:53 AM 37.0 °F 27.7 °F 28.0 °F 70% 30.58 in 10.0 mi North 16.1 mph - N/A   Overcast
5:53 AM 36.0 °F 27.5 °F 30.0 °F 79% 30.60 in 10.0 mi North 12.7 mph - N/A   Overcast
6:53 AM 36.0 °F 26.0 °F 28.9 °F 76% 30.62 in 10.0 mi North 17.3 mph - N/A   Overcast
7:53 AM 36.0 °F 25.6 °F 28.9 °F 76% 30.65 in 10.0 mi North 18.4 mph - N/A   Overcast
8:53 AM 37.0 °F 27.0 °F 28.9 °F 73% 30.66 in 10.0 mi North 18.4 mph - N/A   Overcast
9:53 AM 39.9 °F 29.7 °F 30.0 °F 68% 30.66 in 10.0 mi North 23.0 mph 29.9 mph N/A   Scattered Clouds
10:53 AM 43.0 °F 33.5 °F 30.0 °F 60% 30.65 in 10.0 mi North 24.2 mph 32.2 mph N/A   Partly Cloudy
11:53 AM 45.0 °F 35.8 °F 30.9 °F 58% 30.65 in 10.0 mi North 26.5 mph 33.4 mph N/A   Partly Cloudy
12:53 PM 46.9 °F - 30.9 °F 54% 30.62 in 10.0 mi North 24.2 mph 33.4 mph N/A   Clear
1:53 PM 50.0 °F - 30.9 °F 48% 30.60 in 10.0 mi North 24.2 mph 29.9 mph N/A   Partly Cloudy
2:53 PM 51.1 °F - 28.9 °F 43% 30.58 in 10.0 mi North 28.8 mph 35.7 mph N/A   Partly Cloudy
3:53 PM 51.1 °F - 28.9 °F 43% 30.55 in 10.0 mi North 17.3 mph 31.1 mph N/A   Scattered Clouds
4:53 PM 52.0 °F - 30.0 °F 43% 30.52 in 10.0 mi North 24.2 mph 29.9 mph N/A   Scattered Clouds
5:53 PM 52.0 °F - 27.0 °F 38% 30.51 in 10.0 mi North 21.9 mph 29.9 mph N/A   Scattered Clouds
6:53 PM 51.1 °F - 28.0 °F 41% 30.50 in 10.0 mi NNE 18.4 mph 23.0 mph N/A   Partly Cloudy
7:53 PM 48.9 °F - 30.0 °F 48% 30.48 in 10.0 mi NNE 11.5 mph - N/A   Clear
8:53 PM 43.0 °F 38.8 °F 34.0 °F 71% 30.49 in 10.0 mi NNE 6.9 mph - N/A   Clear
9:53 PM 39.9 °F 35.8 °F 30.9 °F 70% 30.49 in 10.0 mi North 5.8 mph - N/A   Clear
10:53 PM 37.0 °F 33.3 °F 32.0 °F 82% 30.48 in 10.0 mi NW 4.6 mph - N/A   Clear
11:53 PM 37.0 °F 34.5 °F 28.9 °F 73% 30.46 in 10.0 mi NNW 3.5 mph - N/A   Clear